Location: Lamoine Observatory
(44.4551°N, 68.3470°W)
Time: 22:01:13
(UTC-05:00)

Daily predictions for brighter satellites

Satellite Brightness Start Highest point End
(mag) Time Altitude Azimuth Time Altitude Azimuth Time Altitude Azimuth
Cosmos 1634 Rocket 4.0 16:50:33 10° N 16:56:45 74° E 17:02:54 10° SSE
Cosmos 1125 Rocket 3.7 16:57:23 10° NNW 17:02:37 81° WSW 17:07:48 10° SSE
SMAP 3.1 16:58:51 10° SSE 17:03:31 88° W 17:08:13 10° NNW
SJ-7 4.4 16:59:59 10° SSE 17:04:02 86° ENE 17:08:02 10° NNW
Cosmos 371 Rocket 3.5 16:59:50 10° SSW 17:04:38 76° WNW 17:09:28 10° NNE
Cosmos 841 Rocket 4.4 17:01:19 10° SW 17:06:27 51° WNW 17:11:37 10° NNE
Abrixas 2.4 17:05:41 10° WSW 17:08:36 78° SSE 17:11:28 10° ENE
BREEZE M DEB (TANK) 1.3 17:06:12 10° WNW 17:09:37 72° NNE 17:11:43 10° ESE
USA 116 3.1 17:07:02 10° NNE 17:10:12 86° WNW 17:13:17 10° SSW
Cosmos 1703 4.3 17:07:00 10° SSE 17:10:15 26° E 17:13:31 10° NNE
CZ-4 R/B 2.2 17:08:52 10° S 17:12:39 54° W 17:16:31 10° NNW
SJ-6B 4.2 17:11:57 10° ESE 17:14:55 20° ENE 17:17:55 10° NNE
Cosmos 2237 Rocket 2.2 17:09:29 10° SSW 17:15:06 87° ESE 17:20:48 10° NNE
Cosmos 1707 Rocket 4.2 17:11:44 10° N 17:15:37 31° ENE 17:19:29 10° SE
Cosmos 2369 Rocket 3.9 17:13:49 10° N 17:16:39 14° NE 17:19:08 11° ENE
COSMO-SKYMED 1 3.0 17:14:07 10° NNE 17:18:14 41° E 17:22:20 10° S
YAOGAN 1 2.9 17:14:01 10° S 17:18:19 71° WSW 17:22:40 10° NNW
Cosmos 2151 2.9 17:14:09 10° S 17:18:21 78° E 17:22:33 10° N
Cosmos 1300 2.9 17:16:03 10° NNW 17:19:54 75° W 17:23:43 10° S
BREEZE-M DEB (TANK) 3.1 17:18:07 10° SSW 17:20:19 27° SE 17:22:05 13° E
Thor Agena Rocket 3.6 17:15:14 10° NNE 17:20:30 86° ESE 17:25:40 10° SSW
Meteor 1-27 4.3 17:14:45 10° N 17:20:36 73° ENE 17:26:26 10° SSE
SL-16 R/B 2.5 17:18:15 10° S 17:23:36 45° ESE 17:28:58 10° NE
MONITOR-E 4.1 17:20:51 10° SSE 17:24:00 77° ENE 17:27:10 10° N
Meteor 2-10 3.9 17:19:36 10° N 17:24:45 78° E 17:30:00 10° SSE
COSMOS 2428 4.4 17:20:47 10° WSW 17:25:48 31° NW 17:30:50 10° N
SPOT 3 Rocket 4.1 17:20:52 10° S 17:25:58 64° WSW 17:31:07 10° NNW
Cosmos 44 Rocket 4.5 17:22:55 10° WSW 17:27:46 42° NW 17:32:33 10° NNE
Cosmos 1666 Rocket 4.3 17:24:15 10° SSE 17:28:03 31° E 17:31:54 10° NNE
CZ-3A R/B 2.8 17:25:08 10° NW 17:30:25 59° NNE 17:35:38 10° ESE
CZ-4C R/B 4.3 17:30:32 10° NNW 17:34:36 17° NNE 17:38:15 12° NE
Cosmos 2297 3.7 17:29:08 10° NNW 17:34:53 82° ENE 17:40:37 10° SSE
FREGAT/IRIS 3.8 17:33:55 10° SE 17:36:23 23° ENE 17:38:52 10° NNE
SL-14 R/B 3.8 17:32:40 10° SSW 17:36:34 63° W 17:40:34 10° N
Resurs 01 Rocket 2.9 17:35:02 10° ESE 17:38:17 20° ENE 17:41:32 10° NNE
Cosmos 1484 Rocket 3.0 17:34:22 10° S 17:38:19 77° W 17:42:21 10° NNW
Cosmos 304 Rocket 3.7 17:33:53 10° SSW 17:38:40 72° ESE 17:43:28 10° NNE
Cosmos 1340 Rocket 2.7 17:36:30 10° S 17:40:26 85° E 17:44:22 10° NNE
Cosmos 2279 Rocket 4.1 17:36:51 10° N 17:43:05 84° W 17:49:20 10° S
Meteor 1-28 Rocket 3.2 17:40:54 10° NNE 17:44:34 54° E 17:48:13 10° S
Lacrosse 4 Rocket 1.8 17:41:55 10° NNW 17:45:45 39° NE 17:48:48 15° ESE
FENGYUN 3A 4.3 17:46:06 10° SE 17:50:49 32° ENE 17:55:32 10° N
METEOR-M 4.1 17:45:54 10° SSE 17:51:07 58° ENE 17:56:23 10° N
Cosmos 1869 3.8 17:49:50 10° N 17:53:37 37° ENE 17:57:21 10° SE
ATLAS 3B R/B 4.4 17:51:13 10° NNW 17:55:24 16° N 17:58:38 12° NE
Aureole 2 Rocket 3.9 17:52:11 10° SW 17:55:52 44° WNW 17:59:51 10° N
Blok-2BL 4.3 17:56:14 10° NNW 17:58:52 28° NNE 17:58:52 28° NNE
USA 215 3.3 17:53:29 13° ESE 17:59:25 66° NNE 18:05:54 10° NW
NOAA 12 4.0 17:54:41 10° SSE 17:59:54 74° ENE 18:05:11 10° N
Cosmos 773 Rocket 4.1 17:56:06 10° S 18:01:04 51° ESE 18:04:53 17° NE
Cosmos 1470 Rocket 4.4 17:57:23 10° SSE 18:00:58 28° E 18:00:58 28° E
Cosmos 2058 4.1 17:58:39 10° SSW 18:02:34 43° WNW 18:06:30 10° N
Nadezhda 4 Rocket 3.9 17:58:03 10° S 18:04:16 69° E 18:10:34 10° NNE
ATLAS 5 CENTAUR R/B 3.7 18:00:37 10° NNW 18:04:46 20° NNE 18:05:48 19° NE
Cosmos 1805 Rocket 3.8 18:01:42 10° SSW 18:06:09 72° W 18:10:37 10° N
SKYMED 2 4.1 18:02:05 10° N 18:06:23 61° WNW 18:10:39 10° SSW
Lacrosse 5 3.5 18:02:45 10° NW 18:06:30 20° N 18:08:06 18° NNE
Cosmos 2242 Rocket 3.6 18:02:31 10° N 18:06:54 56° E 18:11:16 10° SSE
Cosmos 1461 3.2 18:05:28 10° SW 18:09:35 61° NW 18:12:04 22° NNE
Cosmos 1626 2.5 18:11:32 10° SSW 18:15:15 66° W 18:19:00 10° N
Aureole 1 Rocket 3.9 18:12:06 10° S 18:17:37 70° ESE 18:24:55 10° NNE
Sich 1 3.1 18:14:44 10° S 18:19:11 80° W 18:23:38 10° N
Lacrosse 5 rocket 4.4 18:19:18 10° W 18:21:08 13° WSW 18:23:00 10° SSW
Cosmos 2219 Rocket 4.3 18:17:18 10° W 18:21:31 21° NW 18:25:45 10° N
Cosmos 1943 Rocket 3.7 18:18:36 10° N 18:21:11 18° NNE 18:21:11 18° NNE
Cosmos 1356 Rocket 3.8 18:18:40 10° SSW 18:22:36 59° WNW 18:26:34 10° N
ALOS 2.2 18:20:04 10° SSE 18:24:39 61° ENE 18:29:16 10° N
Cosmos 1092 Rocket 3.9 18:20:18 10° S 18:26:37 74° E 18:32:58 10° NNE
Cosmos 2333 Rocket 4.2 18:23:48 10° WSW 18:28:17 24° NW 18:32:47 10° N
Cosmos 1603 3.7 18:22:53 10° S 18:28:21 56° ESE 18:30:07 40° NE
Cosmos 1633 Rocket 3.3 18:25:08 10° SSW 18:29:32 70° W 18:33:56 10° N
FengYun 1-2 T 4.1 18:25:11 10° SSE 18:30:42 73° ENE 18:36:13 10° N
Cosmos 972 Rocket 4.3 18:27:45 10° N 18:32:48 46° ENE 18:32:57 46° ENE
Cosmos 292 Rocket 3.6 18:30:36 10° S 18:35:17 62° ESE 18:35:32 60° E
CENTAUR R/B 4.5 18:30:31 10° WNW 18:35:32 22° NNW 18:40:21 12° NNE
Cosmos 1455 3.5 18:31:58 10° NNW 18:35:33 41° W 18:39:09 10° SSW
Coronas F rocket 4.1 18:33:20 10° SSW 18:33:36 12° SSW 18:33:36 12° SSW
USA 229 DEB 3.6 18:37:02 10° SSW 18:43:54 86° SE 18:47:09 35° NE
USA 229 3.6 18:37:07 10° SSW 18:44:00 85° SE 18:47:12 35° NE
Cosmos 1242 Rocket 4.4 18:43:28 10° NNW 18:44:49 22° NNW 18:44:49 22° NNW
SJ-6B 4.3 18:45:28 10° SSW 18:49:19 39° W 18:53:14 10° NNW
Spot 2 Rocket 3.4 18:44:43 10° SSE 18:49:46 86° WSW 18:54:50 10° NNW
Cosmos 2195 Rocket 4.3 18:43:46 10° S 18:49:50 73° E 18:56:00 10° NNE
Cosmos 1862 Rocket 3.9 18:46:31 10° N 18:49:59 55° NNW 18:49:59 55° NNW
Iridium 4 Rocket 3.6 18:49:50 10° SSW 18:54:11 57° W 18:57:11 18° N
Cosmos 2369 Rocket 2.3 18:56:11 10° NNW 19:01:00 58° NNE 19:01:00 58° NNE
H-2A ROCKET BODY 4.2 18:52:07 10° WSW 19:06:15 26° SSW 19:09:18 19° SSE
SL-16 R/B 3.8 19:02:55 10° WSW 19:07:53 31° NW 19:11:54 14° N
Cosmos 1417 Rocket 4.3 19:06:59 10° N 19:13:12 85° E 19:13:16 85° E
Resurs 01 Rocket 2.7 19:12:15 25° SSW 19:14:27 44° W 19:18:44 10° NNW
Cosmos 1680 Rocket 3.9 19:17:18 10° SSW 19:22:05 59° W 19:22:05 59° W
Cosmos 1655 Rocket 4.0 19:17:11 10° S 19:23:35 84° W 19:24:06 76° NNW
Lacrosse 4 Rocket 3.7 19:21:11 10° WNW 19:24:12 20° WSW 19:25:17 18° SW
CZ-4C R/B 3.7 19:18:47 10° NNW 19:23:28 34° N 19:23:28 34° N
NOSS 3-1 (C) 4.4 19:29:36 10° SSW 19:32:51 36° SSW 19:32:51 36° SSW
USA 215 4.2 19:40:52 35° SSW 19:42:37 42° SW 19:48:46 10° WNW
ATLAS 3B R/B 4.2 19:42:28 10° NNW 19:45:53 24° N 19:45:53 24° N
ATLAS 5 CENTAUR R/B 3.8 19:44:37 10° NNW 19:47:23 29° NNW 19:47:23 29° NNW
Lacrosse 5 4.2 19:45:56 10° NW 19:47:19 18° NNW 19:47:19 18° NNW
Cosmos 1943 Rocket 4.4 20:01:25 10° NNW 20:02:44 18° NNW 20:02:44 18° NNW
